When you browse on this site, cookies collect data to enhance your experience and personalize the content and advertising you see.
Visit our Privacy Policy to learn more. By continuing to use the site, you agree to this use of cookies and data.
  • En España
  • Lista de países
  • Para 7 días
  • Temperatura del agua
  • El tiempo en el mapa
  • Informadores
  • user-avatar
    Iniciar sesión

    Tiempo cada hora Baranovichi

    Hoy, 7 Abril, Martes

    Tiempo Temperatura Precipitaciones Viento Presión Humedad
    00:00 +5°C° 0 mm 2 mps 759 mmHg 55%
    01:00 +5°C° 0 mm 2 mps 759 mmHg 56%
    02:00 +5°C° 0 mm 2 mps 759 mmHg 56%
    03:00 +4°C° 0 mm 2 mps 759 mmHg 57%
    04:00 +4°C° 0 mm 2 mps 759 mmHg 58%
    05:00 +3°C° 0 mm 2 mps 759 mmHg 59%
    06:00 +5°C° 0 mm 2 mps 759 mmHg 58%
    07:00 +5°C° 0 mm 3 mps 759 mmHg 56%
    08:00 +7°C° 0 mm 3 mps 759 mmHg 52%
    09:00 +8°C° 0 mm 4 mps 759 mmHg 48%
    10:00 +11°C° 0 mm 4 mps 758 mmHg 43%
    11:00 +13°C° 0 mm 5 mps 758 mmHg 38%
    12:00 +14°C° 0 mm 5 mps 758 mmHg 38%
    13:00 +15°C° 0 mm 5 mps 758 mmHg 38%
    14:00 +16°C° 0 mm 5 mps 758 mmHg 38%
    15:00 +17°C° 0 mm 4 mps 757 mmHg 40%
    16:00 +17°C° 0 mm 4 mps 756 mmHg 43%
    17:00 +17°C° 0 mm 4 mps 756 mmHg 46%
    18:00 +14°C° 0 mm 4 mps 756 mmHg 51%
    19:00 +12°C° 0 mm 3 mps 755 mmHg 56%
    20:00 +10°C° 0 mm 3 mps 755 mmHg 61%
    21:00 +10°C° 0 mm 3 mps 755 mmHg 62%
    22:00 +8°C° 0 mm 4 mps 755 mmHg 62%
    23:00 +8°C° 0 mm 4 mps 755 mmHg 62%

    Mañana, 8 Abril, Miércoles

    Tiempo Temperatura Precipitaciones Viento Presión Humedad
    00:00 +8°C° 0 mm 3 mps 755 mmHg 67%
    01:00 +8°C° 0 mm 3 mps 755 mmHg 71%
    02:00 +7°C° 0 mm 3 mps 755 mmHg 76%
    03:00 +5°C° 0 mm 3 mps 755 mmHg 80%
    04:00 +5°C° 0 mm 3 mps 755 mmHg 85%
    05:00 +4°C° 0 mm 3 mps 755 mmHg 90%
    06:00 +5°C° 0 mm 3 mps 755 mmHg 85%
    07:00 +7°C° 0 mm 3 mps 755 mmHg 80%
    08:00 +7°C° 0 mm 4 mps 756 mmHg 75%
    09:00 +8°C° 0 mm 4 mps 756 mmHg 67%
    10:00 +11°C° 0 mm 4 mps 756 mmHg 60%
    11:00 +12°C° 0 mm 4 mps 756 mmHg 53%
    12:00 +13°C° 0 mm 3 mps 755 mmHg 49%
    13:00 +14°C° 0 mm 3 mps 755 mmHg 44%
    14:00 +16°C° 0 mm 3 mps 754 mmHg 40%
    15:00 +16°C° 0 mm 3 mps 754 mmHg 41%
    16:00 +15°C° 0 mm 2 mps 754 mmHg 42%
    17:00 +15°C° 0 mm 2 mps 754 mmHg 43%
    18:00 +13°C° 0 mm 2 mps 753 mmHg 48%
    19:00 +12°C° 0 mm 1 mps 753 mmHg 53%
    20:00 +10°C° 0 mm 1 mps 753 mmHg 58%
    21:00 +9°C° 0 mm 1 mps 753 mmHg 60%
    22:00 +8°C° 0 mm 0 mps 753 mmHg 61%
    23:00 +7°C° 0 mm 0 mps 752 mmHg 62%

    Pasado mañana, 9 Abril, Jueves

    Tiempo Temperatura Precipitaciones Viento Presión Humedad
    00:00 +8°C° 0 mm 1 mps 752 mmHg 64%
    01:00 +7°C° 0 mm 1 mps 751 mmHg 66%
    02:00 +6°C° 0 mm 2 mps 751 mmHg 68%
    03:00 +6°C° 0 mm 2 mps 751 mmHg 71%
    04:00 +5°C° 0 mm 2 mps 750 mmHg 73%
    05:00 +5°C° 0 mm 2 mps 750 mmHg 76%
    06:00 +5°C° 0 mm 3 mps 749 mmHg 72%
    07:00 +8°C° 0 mm 3 mps 749 mmHg 68%
    08:00 +8°C° 0 mm 4 mps 749 mmHg 63%
    09:00 +11°C° 0 mm 4 mps 748 mmHg 60%
    10:00 +13°C° 0 mm 5 mps 748 mmHg 57%
    11:00 +16°C° 0 mm 5 mps 747 mmHg 53%
    12:00 +16°C° 0 mm 5 mps 747 mmHg 51%
    13:00 +17°C° 0 mm 5 mps 746 mmHg 49%
    14:00 +17°C° 0 mm 6 mps 746 mmHg 46%
    15:00 +16°C° 0.1 mm 6 mps 746 mmHg 55%
    16:00 +15°C° 0.1 mm 6 mps 745 mmHg 63%
    17:00 +13°C° 0.1 mm 5 mps 745 mmHg 72%
    18:00 +12°C° 0.8 mm 5 mps 745 mmHg 77%
    19:00 +10°C° 0.8 mm 5 mps 745 mmHg 82%
    20:00 +9°C° 0.8 mm 5 mps 745 mmHg 87%
    21:00 +8°C° 0.1 mm 5 mps 745 mmHg 87%
    22:00 +8°C° 0.1 mm 5 mps 745 mmHg 86%
    23:00 +7°C° 0.1 mm 4 mps 746 mmHg 86%

    10 Abril, Viernes

    Tiempo Temperatura Precipitaciones Viento Presión Humedad
    00:00 +6°C° 0 mm 5 mps 746 mmHg 86%
    01:00 +6°C° 0 mm 5 mps 746 mmHg 87%
    02:00 +5°C° 0 mm 5 mps 746 mmHg 87%
    03:00 +3°C° 0 mm 5 mps 747 mmHg 81%
    04:00 +2°C° 0 mm 5 mps 747 mmHg 75%
    05:00 +1°C° 0 mm 5 mps 748 mmHg 69%
    06:00 +1°C° 0 mm 5 mps 748 mmHg 66%
    07:00 +1°C° 0 mm 6 mps 749 mmHg 64%
    08:00 +2°C° 0 mm 6 mps 749 mmHg 61%
    09:00 +3°C° 0 mm 6 mps 750 mmHg 57%
    10:00 +4°C° 0 mm 6 mps 750 mmHg 53%
    11:00 +5°C° 0 mm 7 mps 750 mmHg 49%
    12:00 +6°C° 0 mm 7 mps 750 mmHg 47%
    13:00 +8°C° 0 mm 7 mps 750 mmHg 44%
    14:00 +8°C° 0 mm 7 mps 750 mmHg 42%
    15:00 +8°C° 0 mm 7 mps 750 mmHg 43%
    16:00 +8°C° 0 mm 7 mps 750 mmHg 44%
    17:00 +8°C° 0 mm 7 mps 750 mmHg 45%
    18:00 +7°C° 0 mm 5 mps 750 mmHg 50%
    19:00 +5°C° 0 mm 4 mps 750 mmHg 56%
    20:00 +4°C° 0 mm 3 mps 750 mmHg 61%
    21:00 +3°C° 0 mm 3 mps 750 mmHg 62%
    22:00 +2°C° 0 mm 3 mps 751 mmHg 64%
    23:00 +2°C° 0 mm 3 mps 751 mmHg 65%

    11 Abril, Sábado

    Tiempo Temperatura Precipitaciones Viento Presión Humedad
    00:00 +1°C° 0 mm 3 mps 751 mmHg 69%
    01:00 +1°C° 0 mm 3 mps 751 mmHg 73%
    02:00 +1°C° 0 mm 2 mps 751 mmHg 77%
    03:00 +1°C° 0 mm 2 mps 751 mmHg 80%
    04:00 -1°C° 0 mm 2 mps 752 mmHg 83%
    05:00 -1°C° 0 mm 2 mps 752 mmHg 86%
    06:00 -1°C° 0 mm 3 mps 752 mmHg 77%
    07:00 0°C° 0 mm 3 mps 752 mmHg 68%
    08:00 +1°C° 0 mm 3 mps 752 mmHg 59%
    09:00 +2°C° 0 mm 3 mps 752 mmHg 55%
    10:00 +3°C° 0 mm 3 mps 752 mmHg 51%
    11:00 +4°C° 0 mm 3 mps 753 mmHg 46%
    12:00 +5°C° 0 mm 3 mps 753 mmHg 44%
    13:00 +5°C° 0 mm 3 mps 753 mmHg 42%
    14:00 +7°C° 0 mm 3 mps 752 mmHg 40%
    15:00 +7°C° 0 mm 3 mps 752 mmHg 41%
    16:00 +7°C° 0 mm 3 mps 752 mmHg 42%
    17:00 +7°C° 0 mm 2 mps 752 mmHg 42%
    18:00 +6°C° 0 mm 2 mps 752 mmHg 47%
    19:00 +5°C° 0 mm 1 mps 752 mmHg 52%
    20:00 +4°C° 0 mm 1 mps 752 mmHg 56%
    21:00 +3°C° 0 mm 1 mps 752 mmHg 57%
    22:00 +3°C° 0 mm 1 mps 752 mmHg 58%
    23:00 +3°C° 0 mm 1 mps 752 mmHg 59%

    12 Abril, Domingo

    Tiempo Temperatura Precipitaciones Viento Presión Humedad
    00:00 +2°C° 0 mm 1 mps 752 mmHg 60%
    01:00 +1°C° 0 mm 2 mps 752 mmHg 61%
    02:00 -1°C° 0 mm 2 mps 752 mmHg 63%
    03:00 -1°C° 0 mm 2 mps 751 mmHg 64%
    04:00 -1°C° 0 mm 2 mps 751 mmHg 65%
    05:00 -1°C° 0 mm 2 mps 750 mmHg 67%
    06:00 0°C° 0 mm 3 mps 750 mmHg 63%
    07:00 +2°C° 0 mm 3 mps 750 mmHg 60%
    08:00 +3°C° 0 mm 4 mps 750 mmHg 56%
    09:00 +4°C° 0 mm 4 mps 749 mmHg 53%
    10:00 +6°C° 0 mm 4 mps 749 mmHg 50%
    11:00 +7°C° 0 mm 4 mps 748 mmHg 47%
    12:00 +8°C° 0 mm 5 mps 748 mmHg 45%
    13:00 +9°C° 0 mm 5 mps 747 mmHg 44%
    14:00 +10°C° 0 mm 5 mps 747 mmHg 42%
    15:00 +10°C° 0 mm 5 mps 746 mmHg 44%
    16:00 +10°C° 0 mm 5 mps 745 mmHg 45%
    17:00 +11°C° 0 mm 4 mps 745 mmHg 47%
    18:00 +10°C° 0 mm 4 mps 744 mmHg 52%
    19:00 +7°C° 0 mm 4 mps 744 mmHg 58%
    20:00 +7°C° 0 mm 3 mps 743 mmHg 64%
    21:00 +7°C° 0 mm 3 mps 743 mmHg 66%
    22:00 +5°C° 0 mm 4 mps 743 mmHg 68%
    23:00 +5°C° 0 mm 4 mps 742 mmHg 71%
    Mostrar más